Location: Maccacari
(45.1333°N, 11.1333°E)
Time: 08:37:20
(UTC+00:00)

SJ-11-01 - Pass Details

Date: 18 September 2020
Orbit: 684 x 701 km, 98.0° (Epoch: 30 October)

Event Time Altitude Azimuth Distance (km) Brightness Sun altitude
Rises 18:02:34 0° 159° (SSE) 3,067 7.3 -8.3°
Reaches altitude 10° 18:04:48 10° 157° (SSE) 2,152 6.5 -8.7°
Maximum altitude 18:09:30 72° 74° (ENE) 734 4.3 -9.5°
Drops below altitude 10° 18:14:12 10° 351° (N) 2,157 7.1 -10.3°
Sets 18:16:28 0° 349° (N) 3,076 8.0 -10.7°
